| time (UTC) | temp F | wind direction | speed knots | gust knots | rain 1hr in | rain 24hr in | rain mn in | humidity % | barometer mb |
| 20260901054553 | 77 | 284 | 0.0 | 0.0 | 0.00 | 0.00 | 0.00 | 93 | 1019.0 |
| 20260901054047 | 77 | 284 | 0.0 | 0.0 | 0.00 | 0.00 | 0.00 | 92 | 1019.0 |
| 20260901053534 | 77 | 284 | 0.0 | 0.0 | 0.00 | 0.00 | 0.00 | 92 | 1019.0 |
| 20260901053019 | 77 | 284 | 1.7 | 0.0 | 0.00 | 0.00 | 0.00 | 92 | 1019.0 |
| 20260901052506 | 77 | 309 | 0.9 | 0.9 | 0.00 | 0.00 | 0.00 | 92 | 1019.0 |
| 20260901051946 | 78 | 246 | 0.9 | 0.0 | 0.00 | 0.00 | 0.00 | 92 | 1019.0 |
| 20260901051431 | 78 | 284 | 1.7 | 0.0 | 0.00 | 0.00 | 0.00 | 92 | 1019.0 |
| 20260901050922 | 78 | 254 | 0.9 | 0.0 | 0.00 | 0.00 | 0.00 | 91 | 1019.3 |
| 20260901050402 | 78 | 256 | 0.9 | 0.0 | 0.00 | 0.00 | 0.00 | 91 | 1019.3 |
| 20260901045855 | 78 | 226 | 1.7 | 0.0 | 0.00 | 0.00 | 0.00 | 91 | 1019.3 |
| 20260901045346 | 78 | 271 | 0.0 | 0.0 | 0.00 | 0.00 | 0.00 | 91 | 1019.3 |
| 20260901044837 | 78 | 276 | 0.9 | 0.0 | 0.00 | 0.00 | 0.00 | 91 | 1019.0 |
| 20260901044320 | 78 | 271 | 0.9 | 0.0 | 0.00 | 0.00 | 0.00 | 90 | 1019.0 |
| 20260901043812 | 78 | 279 | 2.6 | 0.9 | 0.00 | 0.00 | 0.00 | 90 | 1019.0 |
| 20260901043257 | 78 | 273 | 3.5 | 0.9 | 0.00 | 0.00 | 0.00 | 90 | 1019.0 |
| 20260901042751 | 78 | 238 | 0.0 | 0.0 | 0.00 | 0.00 | 0.00 | 90 | 1019.0 |
| 20260901042246 | 78 | 215 | 0.0 | 0.0 | 0.00 | 0.00 | 0.00 | 90 | 1019.0 |
| 20260901041742 | 79 | 252 | 0.9 | 0.9 | 0.00 | 0.00 | 0.00 | 90 | 1019.0 |
| 20260901041232 | 79 | 259 | 0.9 | 0.9 | 0.00 | 0.00 | 0.00 | 90 | 1019.0 |
| 20260901040715 | 79 | 244 | 1.7 | 0.9 | 0.00 | 0.00 | 0.00 | 90 | 1019.0 |
| 20260901040214 | 78 | 269 | 3.5 | 0.9 | 0.00 | 0.00 | 0.00 | 90 | 1019.0 |
| 20260901035657 | 78 | 226 | 0.9 | 0.0 | 0.00 | 0.00 | 0.00 | 89 | 1019.0 |
| 20260901035138 | 79 | 221 | 4.3 | 0.9 | 0.00 | 0.00 | 0.00 | 89 | 1019.0 |
| 20260901034636 | 79 | 210 | 0.9 | 0.9 | 0.00 | 0.00 | 0.00 | 89 | 1019.0 |
| 20260901034129 | 79 | 249 | 2.6 | 0.0 | 0.00 | 0.00 | 0.00 | 89 | 1019.0 |
| 20260901033617 | 79 | 275 | 0.9 | 0.9 | 0.00 | 0.00 | 0.00 | 88 | 1019.0 |
| 20260901033109 | 79 | 206 | 1.7 | 0.9 | 0.00 | 0.00 | 0.00 | 88 | 1019.0 |
| 20260901032556 | 79 | 190 | 3.5 | 0.0 | 0.00 | 0.00 | 0.00 | 87 | 1019.0 |
| 20260901032052 | 79 | 198 | 0.9 | 0.0 | 0.00 | 0.00 | 0.00 | 86 | 1019.0 |
| 20260901031543 | 79 | 213 | 0.0 | 0.9 | 0.00 | 0.00 | 0.00 | 86 | 1019.0 |
| 20260901031025 | 79 | 209 | 2.6 | 0.9 | 0.00 | 0.00 | 0.00 | 85 | 1019.0 |
| 20260901030512 | 79 | 208 | 0.9 | 0.9 | 0.00 | 0.00 | 0.00 | 85 | 1018.6 |
| 20260901030009 | 78 | 232 | 3.5 | 0.9 | 0.00 | 0.00 | 0.00 | 85 | 1019.0 |
| 20260901025505 | 77 | 218 | 0.0 | 0.0 | 0.00 | 0.00 | 0.00 | 86 | 1019.0 |
| 20260901025003 | 77 | 197 | 0.9 | 0.0 | 0.00 | 0.00 | 0.00 | 88 | 1019.0 |
| 20260901024449 | 78 | 197 | 0.0 | 0.0 | 0.00 | 0.00 | 0.00 | 87 | 1018.6 |
| 20260901023948 | 78 | 197 | 0.0 | 0.0 | 0.00 | 0.00 | 0.00 | 87 | 1018.6 |
| 20260901023431 | 78 | 197 | 0.0 | 0.0 | 0.00 | 0.00 | 0.00 | 88 | 1018.6 |
| 20260901022923 | 78 | 197 | 0.0 | 0.0 | 0.00 | 0.00 | 0.00 | 87 | 1018.6 |
| 20260901022407 | 78 | 197 | 0.0 | 0.0 | 0.00 | 0.00 | 0.00 | 87 | 1018.6 |
| 20260901021901 | 78 | 197 | 0.0 | 0.0 | 0.00 | 0.00 | 0.00 | 86 | 1018.6 |
| 20260901021355 | 78 | 197 | 0.0 | 0.0 | 0.00 | 0.00 | 0.00 | 85 | 1018.6 |
| 20260901020848 | 78 | 197 | 0.0 | 0.0 | 0.00 | 0.00 | 0.00 | 85 | 1018.6 |
| 20260901020336 | 78 | 197 | 0.0 | 0.0 | 0.00 | 0.00 | 0.00 | 84 | 1018.6 |
| 20260901015821 | 78 | 197 | 0.0 | 0.0 | 0.00 | 0.00 | 0.00 | 83 | 1018.6 |
| 20260901015307 | 78 | 197 | 0.0 | 0.0 | 0.00 | 0.00 | 0.00 | 83 | 1018.6 |
| 20260901014747 | 79 | 197 | 0.0 | 0.0 | 0.00 | 0.00 | 0.00 | 83 | 1018.6 |
| 20260901014231 | 79 | 197 | 0.0 | 0.0 | 0.00 | 0.00 | 0.00 | 83 | 1018.6 |
| 20260901013720 | 79 | 197 | 0.0 | 0.0 | 0.00 | 0.00 | 0.00 | 83 | 1018.3 |
| 20260901013209 | 79 | 197 | 0.0 | 0.0 | 0.00 | 0.00 | 0.00 | 83 | 1018.3 |
| 20260901012702 | 79 | 197 | 0.0 | 0.0 | 0.00 | 0.00 | 0.00 | 82 | 1018.3 |
| 20260901012156 | 80 | 197 | 0.0 | 0.0 | 0.00 | 0.00 | 0.00 | 81 | 1018.3 |
| 20260901011640 | 80 | 197 | 0.0 | 0.0 | 0.00 | 0.00 | 0.00 | 81 | 1018.3 |
| 20260901011126 | 80 | 197 | 0.0 | 0.0 | 0.00 | 0.00 | 0.00 | 81 | 1018.3 |
| 20260901010611 | 80 | 197 | 0.0 | 0.0 | 0.00 | 0.00 | 0.00 | 81 | 1018.3 |
| 20260901010110 | 80 | 197 | 0.0 | 0.0 | 0.00 | 0.00 | 0.00 | 81 | 1018.3 |
| 20260901005555 | 80 | 197 | 0.0 | 0.0 | 0.00 | 0.00 | 0.00 | 80 | 1017.9 |
| 20260901005049 | 80 | 197 | 0.0 | 0.0 | 0.00 | 0.00 | 0.00 | 81 | 1017.9 |
| 20260901004538 | 80 | 197 | 0.0 | 0.0 | 0.00 | 0.00 | 0.00 | 81 | 1017.9 |
| 20260901004026 | 80 | 197 | 0.0 | 0.0 | 0.00 | 0.00 | 0.00 | 81 | 1017.9 |
| 20260901003511 | 81 | 197 | 0.0 | 0.0 | 0.00 | 0.00 | 0.00 | 80 | 1017.9 |
| 20260901002959 | 81 | 197 | 0.0 | 0.0 | 0.00 | 0.00 | 0.00 | 79 | 1017.9 |
| 20260901002442 | 82 | 197 | 0.0 | 0.0 | 0.00 | 0.00 | 0.00 | 77 | 1017.9 |
| 20260901001937 | 82 | 197 | 0.0 | 0.0 | 0.00 | 0.00 | 0.00 | 76 | 1017.9 |
| 20260901001417 | 82 | 199 | 0.0 | 0.0 | 0.00 | 0.00 | 0.00 | 76 | 1017.9 |
| 20260901000857 | 82 | 199 | 0.0 | 0.0 | 0.00 | 0.00 | 0.00 | 76 | 1017.9 |
| 20260901000346 | 83 | 199 | 0.0 | 0.0 | 0.00 | 0.00 | 0.00 | 75 | 1017.6 |
| 20260831235843 | 83 | 199 | 0.0 | 0.0 | 0.00 | 0.00 | 0.00 | 75 | 1017.9 |
| 20260831235333 | 83 | 207 | 0.0 | 0.0 | 0.00 | 0.00 | 0.00 | 76 | 1017.9 |
| 20260831234818 | 83 | 277 | 0.0 | 0.0 | 0.00 | 0.00 | 0.00 | 76 | 1017.6 |
| 20260831234314 | 84 | 277 | 0.0 | 0.0 | 0.00 | 0.00 | 0.00 | 75 | 1017.6 |
| 20260831233757 | 85 | 277 | 0.0 | 0.0 | 0.00 | 0.00 | 0.00 | 75 | 1017.6 |
| 20260831233245 | 86 | 277 | 0.0 | 0.0 | 0.00 | 0.00 | 0.00 | 73 | 1017.6 |
| 20260831232730 | 87 | 277 | 0.0 | 0.0 | 0.00 | 0.00 | 0.00 | 70 | 1017.6 |
| 20260831232227 | 87 | 277 | 0.0 | 0.0 | 0.00 | 0.00 | 0.00 | 65 | 1017.6 |
| 20260831231721 | 88 | 277 | 0.0 | 0.0 | 0.00 | 0.00 | 0.00 | 64 | 1017.6 |
| 20260831231206 | 89 | 277 | 0.0 | 0.0 | 0.00 | 0.00 | 0.00 | 64 | 1017.6 |
| 20260831230657 | 89 | 277 | 0.0 | 0.0 | 0.00 | 0.00 | 0.00 | 61 | 1017.6 |
| 20260831230141 | 90 | 277 | 0.0 | 0.0 | 0.00 | 0.00 | 0.00 | 62 | 1017.6 |
| 20260831225637 | 90 | 277 | 0.0 | 0.0 | 0.00 | 0.00 | 0.00 | 61 | 1017.6 |
| 20260831225123 | 91 | 277 | 0.0 | 0.0 | 0.00 | 0.00 | 0.00 | 61 | 1017.6 |
| 20260831224604 | 92 | 277 | 0.0 | 0.0 | 0.00 | 0.00 | 0.00 | 58 | 1017.6 |
| 20260831224058 | 92 | 277 | 0.0 | 0.0 | 0.00 | 0.00 | 0.00 | 55 | 1017.3 |
| 20260831223551 | 92 | 276 | 0.0 | 0.0 | 0.00 | 0.00 | 0.00 | 54 | 1017.3 |
| 20260831223037 | 92 | 277 | 0.0 | 0.0 | 0.00 | 0.00 | 0.00 | 54 | 1017.3 |
| 20260831222535 | 93 | 277 | 0.0 | 0.0 | 0.00 | 0.00 | 0.00 | 53 | 1017.3 |
| 20260831222028 | 93 | 277 | 0.0 | 0.0 | 0.00 | 0.00 | 0.00 | 53 | 1017.6 |
| 20260831221519 | 93 | 277 | 0.0 | 0.0 | 0.00 | 0.00 | 0.00 | 52 | 1017.6 |
| 20260831221013 | 93 | 275 | 0.9 | 0.0 | 0.00 | 0.00 | 0.00 | 51 | 1017.6 |
| 20260831220512 | 93 | 275 | 0.9 | 0.0 | 0.00 | 0.00 | 0.00 | 51 | 1017.6 |
| 20260831220008 | 93 | 275 | 0.0 | 0.0 | 0.00 | 0.00 | 0.00 | 51 | 1017.6 |
| 20260831215500 | 93 | 275 | 0.0 | 0.0 | 0.00 | 0.00 | 0.00 | 54 | 1017.6 |
| 20260831214946 | 92 | 275 | 0.0 | 0.0 | 0.00 | 0.00 | 0.00 | 52 | 1017.6 |
| 20260831214443 | 92 | 272 | 1.7 | 0.9 | 0.00 | 0.00 | 0.00 | 51 | 1017.6 |
| 20260831213934 | 92 | 278 | 1.7 | 0.9 | 0.00 | 0.00 | 0.00 | 53 | 1017.6 |
| 20260831213431 | 93 | 286 | 0.0 | 0.9 | 0.00 | 0.00 | 0.00 | 52 | 1017.6 |
| 20260831212930 | 93 | 292 | 3.5 | 0.9 | 0.00 | 0.00 | 0.00 | 51 | 1017.6 |
| 20260831212427 | 93 | 338 | 2.6 | 0.9 | 0.00 | 0.00 | 0.00 | 50 | 1017.6 |
| 20260831211921 | 94 | 320 | 0.9 | 0.0 | 0.00 | 0.00 | 0.00 | 50 | 1017.6 |
| 20260831211419 | 94 | 292 | 0.0 | 0.0 | 0.00 | 0.00 | 0.00 | 52 | 1017.9 |
| 20260831210912 | 94 | 221 | 0.9 | 0.0 | 0.00 | 0.00 | 0.00 | 50 | 1017.9 |
| 20260831210407 | 94 | 211 | 0.0 | 0.0 | 0.00 | 0.00 | 0.00 | 51 | 1017.9 |
| 20260831205906 | 94 | 258 | 0.9 | 0.0 | 0.00 | 0.00 | 0.00 | 55 | 1017.9 |
| 20260831205353 | 94 | 191 | 0.9 | 0.0 | 0.00 | 0.00 | 0.00 | 54 | 1017.9 |
| 20260831204843 | 94 | 201 | 0.9 | 0.0 | 0.00 | 0.00 | 0.00 | 52 | 1017.9 |
| 20260831204337 | 94 | 210 | 1.7 | 0.0 | 0.00 | 0.00 | 0.00 | 52 | 1017.9 |
| 20260831203820 | 94 | 263 | 2.6 | 0.0 | 0.00 | 0.00 | 0.00 | 53 | 1017.9 |
| 20260831203317 | 94 | 227 | 0.9 | 0.9 | 0.00 | 0.00 | 0.00 | 53 | 1017.9 |
| 20260831202808 | 93 | 304 | 0.0 | 0.9 | 0.00 | 0.00 | 0.00 | 53 | 1018.3 |
| 20260831202259 | 94 | 298 | 3.5 | 0.9 | 0.00 | 0.00 | 0.00 | 52 | 1017.9 |
| 20260831201744 | 94 | 254 | 0.0 | 0.0 | 0.00 | 0.00 | 0.00 | 52 | 1018.3 |
| 20260831201240 | 93 | 48 | 0.0 | 0.0 | 0.00 | 0.00 | 0.00 | 54 | 1017.9 |
| 20260831200737 | 93 | 60 | 2.6 | 0.0 | 0.00 | 0.00 | 0.00 | 51 | 1018.3 |
| 20260831200226 | 93 | 165 | 0.9 | 0.0 | 0.00 | 0.00 | 0.00 | 54 | 1018.3 |
| 20260831195714 | 93 | 194 | 0.9 | 0.0 | 0.00 | 0.00 | 0.00 | 52 | 1018.3 |
| 20260831195211 | 94 | 201 | 1.7 | 0.0 | 0.00 | 0.00 | 0.00 | 51 | 1018.3 |
| 20260831194704 | 94 | 182 | 0.0 | 0.0 | 0.00 | 0.00 | 0.00 | 52 | 1018.3 |
| 20260831194158 | 94 | 210 | 0.9 | 0.0 | 0.00 | 0.00 | 0.00 | 51 | 1018.3 |
| 20260831193650 | 93 | 148 | 0.9 | 0.0 | 0.00 | 0.00 | 0.00 | 52 | 1018.3 |
| 20260831193135 | 93 | 286 | 1.7 | 0.0 | 0.00 | 0.00 | 0.00 | 53 | 1018.6 |
| 20260831192631 | 93 | 190 | 1.7 | 0.9 | 0.00 | 0.00 | 0.00 | 54 | 1018.6 |
| 20260831192122 | 94 | 217 | 2.6 | 0.9 | 0.00 | 0.00 | 0.00 | 53 | 1018.6 |
| 20260831191616 | 93 | 193 | 0.0 | 0.0 | 0.00 | 0.00 | 0.00 | 53 | 1018.6 |
| 20260831191110 | 92 | 323 | 0.9 | 0.9 | 0.00 | 0.00 | 0.00 | 52 | 1019.0 |
| 20260831190554 | 93 | 286 | 4.3 | 0.0 | 0.00 | 0.00 | 0.00 | 57 | 1019.0 |
| 20260831190048 | 92 | 193 | 0.9 | 0.0 | 0.00 | 0.00 | 0.00 | 55 | 1019.0 |
| 20260831185526 | 92 | 159 | 1.7 | 0.0 | 0.00 | 0.00 | 0.00 | 54 | 1019.0 |
| 20260831185026 | 92 | 130 | 0.0 | 0.0 | 0.00 | 0.00 | 0.00 | 58 | 1019.0 |
| 20260831184523 | 92 | 194 | 1.7 | 0.0 | 0.00 | 0.00 | 0.00 | 55 | 1019.0 |
| 20260831184015 | 92 | 277 | 0.0 | 0.9 | 0.00 | 0.00 | 0.00 | 55 | 1019.0 |
| 20260831183503 | 92 | 286 | 4.3 | 0.9 | 0.00 | 0.00 | 0.00 | 58 | 1019.3 |
| 20260831183001 | 91 | 197 | 0.9 | 0.9 | 0.00 | 0.00 | 0.00 | 57 | 1019.3 |
| 20260831182456 | 91 | 199 | 1.7 | 0.9 | 0.00 | 0.00 | 0.00 | 57 | 1019.3 |
| 20260831181954 | 92 | 202 | 4.3 | 0.9 | 0.00 | 0.00 | 0.00 | 60 | 1019.3 |
| 20260831181453 | 92 | 224 | 3.5 | 0.9 | 0.00 | 0.00 | 0.00 | 63 | 1019.3 |
| 20260831180949 | 92 | 198 | 4.3 | 0.9 | 0.00 | 0.00 | 0.00 | 63 | 1019.3 |
| 20260831180443 | 91 | 355 | 0.0 | 0.9 | 0.00 | 0.00 | 0.00 | 63 | 1019.3 |
| 20260831175938 | 91 | 296 | 3.5 | 0.9 | 0.00 | 0.00 | 0.00 | 63 | 1019.3 |
| 20260831175437 | 90 | 301 | 1.7 | 0.9 | 0.00 | 0.00 | 0.00 | 64 | 1019.3 |
| 20260831174931 | 91 | 135 | 1.7 | 0.9 | 0.00 | 0.00 | 0.00 | 64 | 1019.3 |
| 20260831174428 | 91 | 184 | 0.9 | 0.0 | 0.00 | 0.00 | 0.00 | 63 | 1019.6 |
| 20260831173924 | 90 | 240 | 0.0 | 0.0 | 0.00 | 0.00 | 0.00 | 60 | 1019.3 |
| 20260831173416 | 90 | 171 | 0.9 | 0.9 | 0.00 | 0.00 | 0.00 | 61 | 1019.3 |
| 20260831172914 | 90 | 280 | 1.7 | 0.9 | 0.00 | 0.00 | 0.00 | 62 | 1019.3 |
| 20260831172405 | 90 | 164 | 1.7 | 0.9 | 0.00 | 0.00 | 0.00 | 62 | 1019.3 |
| 20260831171859 | 90 | 268 | 0.9 | 0.0 | 0.00 | 0.00 | 0.00 | 65 | 1019.6 |
| 20260831171352 | 90 | 247 | 1.7 | 0.0 | 0.00 | 0.00 | 0.00 | 61 | 1019.6 |
| 20260831170839 | 90 | 192 | 0.9 | 0.9 | 0.00 | 0.00 | 0.00 | 62 | 1019.6 |
| 20260831170337 | 90 | 246 | 0.9 | 0.9 | 0.00 | 0.00 | 0.00 | 62 | 1019.6 |
| 20260831165812 | 90 | 275 | 1.7 | 0.0 | 0.00 | 0.00 | 0.00 | 64 | 1019.6 |
| 20260831165310 | 90 | 148 | 0.0 | 0.0 | 0.00 | 0.00 | 0.00 | 63 | 1019.6 |
| 20260831164805 | 90 | 129 | 2.6 | 0.0 | 0.00 | 0.00 | 0.00 | 63 | 1019.6 |
| 20260831164256 | 89 | 184 | 0.0 | 0.0 | 0.00 | 0.00 | 0.00 | 61 | 1019.6 |
| 20260831163741 | 89 | 200 | 0.9 | 0.9 | 0.00 | 0.00 | 0.00 | 66 | 1019.6 |
| 20260831163232 | 89 | 269 | 2.6 | 0.9 | 0.00 | 0.00 | 0.00 | 65 | 1019.6 |
| 20260831162725 | 88 | 188 | 0.0 | 0.9 | 0.00 | 0.00 | 0.00 | 64 | 1020.0 |
| 20260831162222 | 88 | 214 | 2.6 | 0.9 | 0.00 | 0.00 | 0.00 | 64 | 1020.0 |
| 20260831161720 | 89 | 286 | 4.3 | 0.9 | 0.00 | 0.00 | 0.00 | 66 | 1020.0 |
| 20260831161218 | 88 | 103 | 0.0 | 0.0 | 0.00 | 0.00 | 0.00 | 66 | 1020.0 |
| 20260831160708 | 88 | 113 | 3.5 | 0.0 | 0.00 | 0.00 | 0.00 | 65 | 1020.0 |
| 20260831160201 | 88 | 42 | 3.5 | 0.0 | 0.00 | 0.00 | 0.00 | 68 | 1020.0 |
| 20260831155647 | 88 | 44 | 0.9 | 0.0 | 0.00 | 0.00 | 0.00 | 66 | 1020.0 |
| 20260831155138 | 88 | 82 | 0.0 | 0.0 | 0.00 | 0.00 | 0.00 | 65 | 1020.3 |
| 20260831154625 | 88 | 24 | 0.9 | 0.9 | 0.00 | 0.00 | 0.00 | 67 | 1020.3 |
| 20260831154118 | 88 | 305 | 0.9 | 0.0 | 0.00 | 0.00 | 0.00 | 68 | 1020.3 |
| 20260831153612 | 87 | 180 | 0.0 | 0.0 | 0.00 | 0.00 | 0.00 | 69 | 1020.3 |
| 20260831153108 | 87 | 27 | 0.0 | 0.0 | 0.00 | 0.00 | 0.00 | 68 | 1020.7 |
| 20260831152602 | 87 | 19 | 0.9 | 0.0 | 0.00 | 0.00 | 0.00 | 69 | 1020.3 |
| 20260831152050 | 87 | 278 | 0.9 | 0.9 | 0.00 | 0.00 | 0.00 | 69 | 1020.3 |
| 20260831151540 | 87 | 332 | 0.0 | 0.9 | 0.00 | 0.00 | 0.00 | 69 | 1020.3 |
| 20260831151032 | 86 | 47 | 0.0 | 0.0 | 0.00 | 0.00 | 0.00 | 69 | 1020.3 |
| 20260831150529 | 86 | 355 | 0.0 | 0.0 | 0.00 | 0.00 | 0.00 | 70 | 1020.3 |
| 20260831150025 | 86 | 23 | 0.9 | 0.0 | 0.00 | 0.00 | 0.00 | 72 | 1020.3 |
| 20260831145519 | 86 | 346 | 1.7 | 0.0 | 0.00 | 0.00 | 0.00 | 72 | 1020.3 |
| 20260831145018 | 85 | 334 | 0.0 | 0.0 | 0.00 | 0.00 | 0.00 | 73 | 1020.3 |
| 20260831144515 | 85 | 26 | 0.9 | 0.0 | 0.00 | 0.00 | 0.00 | 73 | 1020.3 |
| 20260831144003 | 85 | 344 | 1.7 | 0.0 | 0.00 | 0.00 | 0.00 | 75 | 1020.0 |
| 20260831143455 | 85 | 360 | 1.7 | 0.0 | 0.00 | 0.00 | 0.00 | 74 | 1020.0 |
| 20260831142941 | 85 | 346 | 0.9 | 0.0 | 0.00 | 0.00 | 0.00 | 75 | 1020.0 |
| 20260831142433 | 84 | 266 | 2.6 | 0.0 | 0.00 | 0.00 | 0.00 | 77 | 1020.0 |
| 20260831141921 | 84 | 315 | 0.9 | 0.0 | 0.00 | 0.00 | 0.00 | 80 | 1020.0 |
| 20260831141408 | 84 | 336 | 0.0 | 0.0 | 0.00 | 0.00 | 0.00 | 79 | 1020.0 |
| 20260831140907 | 83 | 298 | 1.7 | 0.0 | 0.00 | 0.00 | 0.00 | 79 | 1020.0 |
| 20260831140359 | 83 | 329 | 0.9 | 0.9 | 0.00 | 0.00 | 0.00 | 81 | 1020.0 |
| 20260831135850 | 83 | 333 | 3.5 | 0.9 | 0.00 | 0.00 | 0.00 | 82 | 1020.0 |
| 20260831135330 | 83 | 338 | 1.7 | 0.0 | 0.00 | 0.00 | 0.00 | 83 | 1020.0 |
| 20260831134814 | 82 | 315 | 0.9 | 0.0 | 0.00 | 0.00 | 0.00 | 84 | 1020.0 |
| 20260831134307 | 81 | 333 | 0.9 | 0.9 | 0.00 | 0.00 | 0.00 | 86 | 1020.0 |
| 20260831133755 | 81 | 295 | 5.2 | 0.9 | 0.00 | 0.00 | 0.00 | 86 | 1019.6 |
| 20260831133250 | 81 | 292 | 0.9 | 0.0 | 0.00 | 0.00 | 0.00 | 88 | 1020.0 |
| 20260831132740 | 81 | 18 | 1.7 | 0.9 | 0.00 | 0.00 | 0.00 | 89 | 1020.0 |
| 20260831132236 | 80 | 295 | 2.6 | 0.0 | 0.00 | 0.00 | 0.00 | 89 | 1020.0 |
| 20260831131728 | 80 | 20 | 0.9 | 0.0 | 0.00 | 0.00 | 0.00 | 90 | 1020.0 |
| 20260831131224 | 79 | 14 | 2.6 | 0.0 | 0.00 | 0.00 | 0.00 | 90 | 1020.0 |
| 20260831130708 | 79 | 346 | 0.9 | 0.0 | 0.00 | 0.00 | 0.00 | 91 | 1020.0 |
| 20260831130158 | 79 | 355 | 1.7 | 0.0 | 0.00 | 0.00 | 0.00 | 93 | 1020.0 |
| 20260831125641 | 78 | 355 | 0.0 | 0.0 | 0.00 | 0.00 | 0.00 | 94 | 1020.0 |
| 20260831125140 | 78 | 9 | 0.0 | 0.0 | 0.00 | 0.00 | 0.00 | 96 | 1020.0 |
| 20260831124630 | 77 | 313 | 0.0 | 0.0 | 0.00 | 0.00 | 0.00 | 97 | 1020.0 |
| 20260831124112 | 76 | 5 | 0.0 | 0.0 | 0.00 | 0.00 | 0.00 | 98 | 1020.0 |
| 20260831123600 | 76 | 342 | 0.9 | 0.0 | 0.00 | 0.00 | 0.00 | 98 | 1020.0 |
| 20260831123051 | 75 | 20 | 0.0 | 0.0 | 0.00 | 0.00 | 0.00 | 98 | 1020.0 |
| 20260831122548 | 75 | 344 | 0.0 | 0.0 | 0.00 | 0.00 | 0.00 | 98 | 1020.0 |
| 20260831122046 | 74 | 355 | 0.0 | 0.0 | 0.00 | 0.00 | 0.00 | 98 | 1020.0 |
| 20260831121540 | 74 | 334 | 0.0 | 0.0 | 0.00 | 0.00 | 0.00 | 98 | 1020.0 |
| 20260831121033 | 74 | 336 | 0.0 | 0.0 | 0.00 | 0.00 | 0.00 | 98 | 1020.0 |
| 20260831120516 | 74 | 297 | 0.0 | 0.0 | 0.00 | 0.00 | 0.00 | 98 | 1019.6 |
| 20260831120003 | 74 | 348 | 0.0 | 0.0 | 0.00 | 0.00 | 0.00 | 98 | 1019.6 |
| 20260831115447 | 73 | 310 | 0.0 | 0.0 | 0.00 | 0.00 | 0.00 | 98 | 1019.6 |
| 20260831114941 | 73 | 310 | 0.0 | 0.0 | 0.00 | 0.00 | 0.00 | 98 | 1019.6 |
| 20260831114432 | 73 | 310 | 0.0 | 0.0 | 0.00 | 0.00 | 0.00 | 98 | 1019.6 |
| 20260831113916 | 72 | 310 | 0.0 | 0.0 | 0.00 | 0.00 | 0.00 | 98 | 1019.6 |
| 20260831113357 | 72 | 310 | 0.0 | 0.0 | 0.00 | 0.00 | 0.00 | 98 | 1019.6 |
| 20260831112843 | 71 | 310 | 0.0 | 0.0 | 0.00 | 0.00 | 0.00 | 98 | 1019.6 |
| 20260831112325 | 71 | 310 | 0.0 | 0.0 | 0.00 | 0.00 | 0.00 | 98 | 1019.6 |
| 20260831111812 | 71 | 310 | 0.0 | 0.0 | 0.00 | 0.00 | 0.00 | 98 | 1019.6 |
| 20260831111309 | 71 | 310 | 0.0 | 0.0 | 0.00 | 0.00 | 0.00 | 98 | 1019.6 |
| 20260831110759 | 71 | 310 | 0.0 | 0.0 | 0.00 | 0.00 | 0.00 | 98 | 1019.6 |
| 20260831110248 | 71 | 310 | 0.0 | 0.0 | 0.00 | 0.00 | 0.00 | 98 | 1019.6 |
| 20260831105748 | 71 | 310 | 0.0 | 0.0 | 0.00 | 0.00 | 0.00 | 98 | 1019.6 |
| 20260831105239 | 71 | 310 | 0.0 | 0.0 | 0.00 | 0.00 | 0.00 | 98 | 1019.6 |
| 20260831104718 | 71 | 310 | 0.0 | 0.0 | 0.00 | 0.00 | 0.00 | 98 | 1019.6 |
| 20260831104203 | 70 | 309 | 0.9 | 0.0 | 0.00 | 0.00 | 0.00 | 98 | 1019.6 |
| 20260831103650 | 70 | 346 | 0.9 | 0.0 | 0.00 | 0.00 | 0.00 | 98 | 1019.3 |
| 20260831103137 | 70 | 122 | 0.0 | 0.0 | 0.00 | 0.00 | 0.00 | 98 | 1019.3 |
| 20260831102616 | 69 | 124 | 0.0 | 0.0 | 0.00 | 0.00 | 0.00 | 98 | 1019.3 |
| 20260831102100 | 69 | 124 | 0.0 | 0.0 | 0.00 | 0.00 | 0.00 | 98 | 1019.6 |
| 20260831101547 | 69 | 124 | 0.0 | 0.0 | 0.00 | 0.00 | 0.00 | 98 | 1019.3 |
| 20260831101027 | 69 | 124 | 0.0 | 0.0 | 0.00 | 0.00 | 0.00 | 98 | 1019.3 |
| 20260831100524 | 69 | 124 | 0.0 | 0.0 | 0.00 | 0.00 | 0.00 | 98 | 1019.3 |
| 20260831100015 | 70 | 124 | 0.0 | 0.0 | 0.00 | 0.00 | 0.00 | 98 | 1019.3 |
| 20260831095511 | 70 | 124 | 0.0 | 0.0 | 0.00 | 0.00 | 0.00 | 98 | 1019.3 |
| 20260831095003 | 70 | 124 | 0.0 | 0.0 | 0.00 | 0.00 | 0.00 | 98 | 1019.3 |
| 20260831094451 | 70 | 124 | 0.0 | 0.0 | 0.00 | 0.00 | 0.00 | 98 | 1019.3 |
| 20260831093940 | 70 | 124 | 0.0 | 0.0 | 0.00 | 0.00 | 0.00 | 98 | 1019.3 |
| 20260831093425 | 70 | 124 | 0.0 | 0.0 | 0.00 | 0.00 | 0.00 | 98 | 1019.6 |
| 20260831092908 | 70 | 124 | 0.0 | 0.0 | 0.00 | 0.00 | 0.00 | 98 | 1019.3 |
| 20260831092358 | 70 | 124 | 0.0 | 0.0 | 0.00 | 0.00 | 0.00 | 98 | 1019.3 |
| 20260831091846 | 70 | 124 | 0.0 | 0.0 | 0.00 | 0.00 | 0.00 | 98 | 1019.3 |
| 20260831091339 | 70 | 124 | 0.0 | 0.0 | 0.00 | 0.00 | 0.00 | 98 | 1019.3 |
| 20260831090837 | 70 | 124 | 0.0 | 0.0 | 0.00 | 0.00 | 0.00 | 98 | 1019.3 |
| 20260831090323 | 70 | 124 | 0.0 | 0.0 | 0.00 | 0.00 | 0.00 | 98 | 1019.3 |
| 20260831085816 | 70 | 124 | 0.0 | 0.0 | 0.00 | 0.00 | 0.00 | 98 | 1019.3 |
| 20260831085306 | 70 | 124 | 0.0 | 0.0 | 0.00 | 0.00 | 0.00 | 98 | 1019.3 |
| 20260831084746 | 70 | 124 | 0.0 | 0.0 | 0.00 | 0.00 | 0.00 | 98 | 1019.3 |
| 20260831084245 | 70 | 124 | 0.0 | 0.0 | 0.00 | 0.00 | 0.00 | 98 | 1019.3 |
| 20260831083743 | 70 | 124 | 0.0 | 0.0 | 0.00 | 0.00 | 0.00 | 98 | 1019.3 |
| 20260831083240 | 70 | 124 | 0.0 | 0.0 | 0.00 | 0.00 | 0.00 | 98 | 1019.3 |
| 20260831082730 | 70 | 124 | 0.0 | 0.0 | 0.00 | 0.00 | 0.00 | 98 | 1019.6 |
| 20260831082213 | 70 | 124 | 0.0 | 0.0 | 0.00 | 0.00 | 0.00 | 98 | 1019.3 |
| 20260831081702 | 70 | 124 | 0.0 | 0.0 | 0.00 | 0.00 | 0.00 | 98 | 1019.6 |
| 20260831081159 | 70 | 124 | 0.0 | 0.0 | 0.00 | 0.00 | 0.00 | 97 | 1019.6 |
| 20260831080653 | 70 | 124 | 0.0 | 0.0 | 0.00 | 0.00 | 0.00 | 98 | 1019.6 |
| 20260831080147 | 71 | 124 | 0.0 | 0.0 | 0.00 | 0.00 | 0.00 | 98 | 1019.6 |
| 20260831075646 | 71 | 124 | 0.0 | 0.0 | 0.00 | 0.00 | 0.00 | 98 | 1019.6 |
| 20260831075139 | 71 | 124 | 0.0 | 0.0 | 0.00 | 0.00 | 0.00 | 98 | 1019.6 |
| 20260831074626 | 71 | 124 | 0.0 | 0.0 | 0.00 | 0.00 | 0.00 | 98 | 1019.6 |
| 20260831074125 | 71 | 124 | 0.0 | 0.0 | 0.00 | 0.00 | 0.00 | 98 | 1019.6 |
| 20260831073618 | 71 | 124 | 0.0 | 0.0 | 0.00 | 0.00 | 0.00 | 98 | 1019.6 |
| 20260831073115 | 71 | 124 | 0.0 | 0.0 | 0.00 | 0.00 | 0.00 | 98 | 1019.6 |
| 20260831072602 | 71 | 129 | 0.0 | 0.0 | 0.00 | 0.00 | 0.00 | 97 | 1019.6 |
| 20260831072058 | 71 | 176 | 0.0 | 0.0 | 0.00 | 0.00 | 0.00 | 98 | 1019.6 |
| 20260831071547 | 71 | 176 | 0.0 | 0.0 | 0.00 | 0.00 | 0.00 | 98 | 1019.6 |
| 20260831071034 | 71 | 179 | 0.0 | 0.0 | 0.00 | 0.00 | 0.00 | 98 | 1019.6 |
| 20260831070528 | 71 | 179 | 0.0 | 0.0 | 0.00 | 0.00 | 0.00 | 98 | 1019.6 |
| 20260831070016 | 71 | 179 | 0.0 | 0.0 | 0.00 | 0.00 | 0.00 | 98 | 1019.6 |
| 20260831065457 | 71 | 179 | 0.0 | 0.0 | 0.00 | 0.00 | 0.00 | 98 | 1019.6 |
| 20260831064948 | 71 | 179 | 0.0 | 0.0 | 0.00 | 0.00 | 0.00 | 98 | 1019.6 |
| 20260831064439 | 71 | 179 | 0.0 | 0.0 | 0.00 | 0.00 | 0.00 | 97 | 1019.6 |
| 20260831063927 | 71 | 179 | 0.0 | 0.0 | 0.00 | 0.00 | 0.00 | 97 | 1019.6 |
| 20260831063416 | 72 | 179 | 0.0 | 0.0 | 0.00 | 0.00 | 0.00 | 97 | 1019.6 |
| 20260831062911 | 72 | 179 | 0.0 | 0.0 | 0.00 | 0.00 | 0.00 | 97 | 1019.6 |
| 20260831062355 | 72 | 179 | 0.0 | 0.0 | 0.00 | 0.00 | 0.00 | 97 | 1019.6 |
| 20260831061853 | 72 | 179 | 0.0 | 0.0 | 0.00 | 0.00 | 0.00 | 97 | 1019.6 |
| 20260831061339 | 72 | 179 | 0.0 | 0.0 | 0.00 | 0.00 | 0.00 | 97 | 1020.0 |
| 20260831060829 | 72 | 179 | 0.0 | 0.0 | 0.00 | 0.00 | 0.00 | 97 | 1020.0 |
| 20260831060328 | 72 | 179 | 0.0 | 0.0 | 0.00 | 0.00 | 0.00 | 97 | 1020.0 |
| 20260831055815 | 72 | 179 | 0.0 | 0.0 | 0.00 | 0.00 | 0.00 | 97 | 1020.0 |
| 20260831055306 | 72 | 179 | 0.0 | 0.0 | 0.00 | 0.00 | 0.00 | 98 | 1020.0 |
| 20260831054805 | 72 | 179 | 0.0 | 0.0 | 0.00 | 0.00 | 0.00 | 97 | 1020.0 |